Terminal Aerodrome Forecast
Issued by NWS Portland, ME

Home | Current Version | Previous Version | Text Only | Print | Product List | Glossary On
Versions: 1 2 3 4 5 6 7 8 9 10 11 12 13 14 15 16 17 18 19 20 21
000
FTUS41 KGYX 252330
TAFPWM
TAF
KPWM 252330Z 2600/2624 32009G18KT P6SM SCT250
     FM260200 33007KT P6SM BKN250
     FM261400 03006KT P6SM SCT120 OVC200
     FM262100 03012KT P6SM BKN100 OVC150=

USA.gov is the U.S. government's official web portal to all federal, state and local government web resources and services.